Miscellaneous Local Product
Issued by NWS North Platte, NE

Home | Current Version | Previous Version | Text Only | Print | Product List | Glossary On
Versions: 1 2 3 4 5 6 7 8 9 10 11 12 13 14 15 16 17 18 19 20 21 22 23 24 25 26 27 28 29 30 31 32 33 34 35 36 37 38 39 40 41 42 43 44 45 46 47 48 49 50
000
AXUS43 KLBF 121810
MISLBF


WESTERN AND NORTH CENTRAL NEBRASKA HOURLY WEATHER ROUNDUP
NATIONAL WEATHER SERVICE NORTH PLATTE NE
100 PM CDT SAT JUL 12 2014

***STATIONS NOT REPORTING VARIABLES SUCH AS SKY/WEATHER OR
PRESSURE ARE PROVIDED BY THE NEBRASKA DEPARTMENT OF
ROADS...RAWS...AND APRS NETWORKS...AND ARE NOT UNDER
NATIONAL WEATHER SERVICE QUALITY CONTROL***

...OBSERVATIONS IN AND NEAR THE EASTERN PANHANDLE OF NEBRASKA...

CITY           SKY/WX    TMP DP  RH WIND       PRES   REMARKS
PINE RIDGE     MOSUNNY   75  62  64 VRB3      30.18F
CHADRON        PTSUNNY   78  58  49 SE8       30.18F
ALLIANCE       CLOUDY    73  60  63 NE6       30.22R
SIDNEY         MOSUNNY   76  61  59 N8        30.24R
WHITECLAY        N/A     75  61  60 W5          N/A
RUSHVILLE        N/A    N/A N/A N/A S6          N/A
GORDON           N/A     77  64  62 NE8         N/A
CRESCENT LAKE    N/A     76  60  58 NE8         N/A
LISCO            N/A     80  61  52 NW8         N/A
BIG SPRINGS      N/A     73  67  81 NE8         N/A
$$

...OBSERVATIONS IN NORTH CENTRAL NEBRASKA...

CITY           SKY/WX    TMP DP  RH WIND       PRES   REMARKS
VALENTINE      CLOUDY    72  66  81 N10       30.14S
THEDFORD       PTSUNNY   79  67  66 N10       30.12F
AINSWORTH      MOSUNNY   76  64  65 NE8       30.11S
O`NEILL        CLOUDY    71  66  83 N8        30.09S
ORD            CLOUDY    70  65  84 N12       30.05S
BROKEN BOW     CLOUDY    72  67  84 N14       30.08F
BROWNLEE         N/A     81  62  53 N14         N/A
SPRINGVIEW       N/A     78  67  69 CALM        N/A
ROSE             N/A     79  71  76 N5          N/A
NEWPORT          N/A     75  68  78 S3          N/A
SARGENT          N/A     71  67  87 NE3         N/A
COMSTOCK         N/A     78  72  82 N9          N/A
CHAMBERS         N/A     79  67  66 E7          N/A
$$

...OBSERVATIONS IN SOUTHWEST NEBRASKA AND FAR NORTHEAST COLORADO...

CITY           SKY/WX    TMP DP  RH WIND       PRES   REMARKS
WRAY           FAIR      80  65  61 N15       30.17S
HOLYOKE        MOCLDY    79  64  61 N13       30.18S
IMPERIAL       PTSUNNY   78  66  66 N13       30.14S
OGALLALA       SUNNY     77  62  60 N12G17    30.15S
NORTH PLATTE   PTSUNNY   77  65  66 N12       30.10S
MCCOOK         MOSUNNY   82  68  62 N13       30.07R
LEXINGTON      CLOUDY    77  69  78 N9        30.07R
PAXTON           N/A     74  68  82 N9          N/A
SUTHERLAND       N/A     83  72  69 NE8         N/A
BRADY            N/A     77  68  72 CALM        N/A
GOTHENBURG       N/A     72  64  75 N9          N/A
CALLAWAY         N/A     69  68  97 NE8         N/A
$$

...NORTH PLATTE AREA...

CITY           SKY/WX    TMP DP  RH WIND       PRES   REMARKS
AIRPORT        PTSUNNY   77  65  66 N12       30.10S
INDIAN HILLS     N/A     80  67  63 NW3         N/A
$$

...SOME WEATHER OBSERVATIONS FROM AROUND THE REGION...

CITY           SKY/WX    TMP DP  RH WIND       PRES   REMARKS
DENVER         PTSUNNY   73  61  65 VRB3      30.30R
LARAMIE        CLOUDY    65  57  75 N14       30.40S
CHEYENNE       PTSUNNY   68  57  68 N10       30.34S
SCOTTSBLUFF    CLOUDY    73  61  65 CALM      30.24R
RAPID CITY     PTSUNNY   69  63  81 SE8       30.18F
PIERRE         MOSUNNY   73  62  68 CALM      30.09S
WINNER         CLOUDY    78  65  63 CALM      30.09S
SIOUX FALLS    CLOUDY    74  65  73 N15       30.06S
OMAHA          CLOUDY    85  69  58 S10       29.96F
GRAND ISLAND   PTSUNNY   82  70  66 NW12      30.03R
KANSAS CITY    PTSUNNY   88  71  57 SW15      30.03F HX  94
WICHITA        MOSUNNY   89  66  46 SW20G29   30.06F HX  91
HAYS           SUNNY     93  57  29 SW20      30.01S HX  92
LIBERAL        SUNNY     91  61  35 SW20G26   30.11F HX  91
GOODLAND       SUNNY     83  66  56 N13       30.13R
$$



USA.gov is the U.S. government's official web portal to all federal, state and local government web resources and services.